Tracking 29059 objects as of 18-Jun-2024
HD Live streaming from Space Station
objects crossing your sky now

GLOBALSTAR M047

Track GLOBALSTAR M047 now!
10-day predictions
GLOBALSTAR M047 is classified as:


NORAD ID: 25772
Int'l Code: 1999-031C
Perigee: 1,994.5 km
Apogee: 2,021.4 km
Inclination: 52.0 °
Period: 127.2 minutes
Semi major axis: 8378 km
RCS: 2.931 m2 (large)
Launch date: June 10, 1999
Source: Globalstar (GLOB)
Launch site: AIR FORCE EASTERN TEST RANGE (AFETR)
Your satellite tracking list
Your tracking list is empty




NASA's NSSDC Master Catalog

Two Line Element Set (TLE):
1 25772U 99031C   24169.87935270 -.00000093  00000-0 -63612-3 0  9993
2 25772  51.9857 331.4429 0016059 359.8740   0.2060 11.31920892429855
Source of the keplerian elements: AFSPC